Вернуться в каталог

NOAA 16 DEB

АктивенSSO
NORAD 42387·DEBRIS·🇺🇸 United States

Запущен Sep 21, 2000 с Vandenberg Space Force Base

Loading…

Ближайшие Пролёты (ближайшие 24 часа)

TLE

СвежийSource: Space-Track

Эпоха: Sep 12, 2026, 08:05 UTC

1 42387U 00055SF  26255.33705550  .00004280  00000-0  12336-2 0  9993
2 42387  98.8432  29.5315 0010150 338.9829  21.0943 14.45212686548245

Отслеживайте NOAA 16 DEB в реальном времени с AllMySat

Download on the App Store